Olympia, WA

8:16 AM PDT on June 27, 2017 (GMT -0700)
Olympia

Weather History for KOLM - February, 2012

Change the Weather History Date:

Sunday, February 5, 2012

  Actual Average Record
Temperature  
Mean Temperature 39 °F 40 °F  
Max Temperature 55 °F 48 °F 62 °F (1961)
Min Temperature 23 °F 33 °F 2 °F (1989)
Degree Days  
Heating Degree Days 26 24  
Month to date heating degree days 124 121  
Since 1 July heating degree days 3335 3172  
Cooling Degree Days 0 0  
Month to date cooling degree days 0 0  
Year to date cooling degree days 0 0  
Moisture  
Dew Point 26 °F    
Average Humidity 69    
Maximum Humidity 96    
Minimum Humidity 41    
Precipitation  
Precipitation 0.00 in 0.21 in 1.32 in (1996)
Month to date precipitation 0.14 1.01  
Year to date precipitation 8.86 8.85  
Sea Level Pressure  
Sea Level Pressure 30.19 in    
Wind  
Wind Speed 1 mph (North)    
Max Wind Speed 7 mph    
Max Gust Speed 9 mph    
Visibility 4 miles    
Events      
T = Trace of Precipitation, MM = Missing Value Source: NWS Daily Summary

Daily Weather History Graph

Daily Weather History Graph

Search for Another Location

Airport or City:

Trip Planner

Search our weather history database for the weather conditions in past years. The results will help you decide how hot, cold, wet, or windy it might be!

Date:

Astronomy

Feb. 05, 2012 Rise Set
Actual Time 7:31 AM PST 5:20 PM PST
Civil Twilight 6:59 AM PST 5:52 PM PST
Nautical Twilight 6:23 AM PST 6:28 PM PST
Astronomical Twilight 5:47 AM PST 7:04 PM PST
Moon 3:20 PM PST (2/5) 5:51 AM PST (2/5)
Length of Visible Light 10h 52m
Length of Day
9h 48m
Waxing Gibbous, 95% of the Moon is Illuminated
Feb 5
Waxing Gibbous
Feb 7
Full
Feb 14
Last Quarter
Feb 21
New
Feb 29
First Quarter

Hourly Weather History & Observations

Time (PST) Temp. Windchill Dew Point Humidity Pressure Visibility Wind Dir Wind Speed Gust Speed Precip Events Conditions
12:54 AM 26.1 °F - 24.1 °F 92% 30.19 in 6.0 mi Calm Calm - N/A   Clear
1:08 AM 24.8 °F - 23.0 °F 93% 30.19 in 1.8 mi Calm Calm - N/A   Clear
1:16 AM 28.4 °F - 24.8 °F 86% 30.20 in 1.0 mi Calm Calm - N/A   Clear
1:20 AM 26.6 °F - 24.8 °F 93% 30.20 in 2.0 mi Calm Calm - N/A   Clear
1:28 AM 26.6 °F - 24.8 °F 93% 30.20 in 5.0 mi Calm Calm - N/A   Clear
1:54 AM 27.0 °F - 25.0 °F 92% 30.21 in 4.0 mi Calm Calm - N/A   Clear
2:09 AM 24.8 °F - 23.0 °F 93% 30.21 in 1.8 mi Calm Calm - N/A   Clear
2:20 AM 24.8 °F - 23.0 °F 93% 30.21 in 3.0 mi Calm Calm - N/A   Clear
2:35 AM 28.4 °F - 24.8 °F 86% 30.21 in 2.5 mi Calm Calm - N/A   Clear
2:45 AM 26.6 °F - 24.8 °F 93% 30.21 in 4.0 mi Calm Calm - N/A   Clear
2:51 AM 24.8 °F - 23.0 °F 93% 30.21 in 2.0 mi Calm Calm - N/A   Partly Cloudy
2:54 AM 26.1 °F - 24.1 °F 92% 30.22 in 1.8 mi Calm Calm - N/A   Partly Cloudy
3:01 AM 23.0 °F - 21.2 °F 93% 30.21 in 3.0 mi Calm Calm - N/A   Clear
3:13 AM 26.6 °F - 24.8 °F 93% 30.22 in 1.8 mi Calm Calm - N/A   Clear
3:28 AM 24.8 °F - 24.8 °F 100% 30.22 in 1.0 mi Calm Calm - N/A   Clear
3:34 AM 24.8 °F - 23.0 °F 93% 30.22 in 3.0 mi Calm Calm - N/A   Clear
3:39 AM 24.8 °F - 21.2 °F 86% 30.22 in 2.5 mi Calm Calm - N/A   Partly Cloudy
3:54 AM 25.0 °F - 21.9 °F 88% 30.22 in 2.5 mi Calm Calm - N/A   Scattered Clouds
4:00 AM 24.8 °F - 23.0 °F 93% 30.22 in 1.2 mi Calm Calm - N/A   Partly Cloudy
4:13 AM 24.8 °F - 21.2 °F 86% 30.22 in 0.8 mi Calm Calm - N/A   Mist
4:26 AM 24.8 °F - 24.8 °F 100% 30.22 in 1.2 mi Calm Calm - N/A   Partly Cloudy
4:28 AM 26.6 °F - 24.8 °F 93% 30.22 in 2.0 mi Calm Calm - N/A   Partly Cloudy
4:37 AM 24.8 °F - 24.8 °F 100% 30.22 in 3.0 mi Calm Calm - N/A   Partly Cloudy
4:54 AM 23.0 °F - 21.9 °F 96% 30.23 in 4.0 mi Calm Calm - N/A   Clear
4:58 AM 24.8 °F - 21.2 °F 86% 30.22 in 2.5 mi Calm Calm - N/A   Partly Cloudy
5:00 AM 24.8 °F - 21.2 °F 86% 30.22 in 1.2 mi Calm Calm - N/A   Partly Cloudy
5:04 AM 24.8 °F - 21.2 °F 86% 30.21 in 0.8 mi Calm Calm - N/A   Mist
5:28 AM 24.8 °F - 21.2 °F 86% 30.21 in 1.0 mi Calm Calm - N/A   Clear
5:41 AM 24.8 °F - 21.2 °F 86% 30.21 in 2.0 mi Calm Calm - N/A   Clear
5:54 AM 24.1 °F - 21.9 °F 91% 30.22 in 5.0 mi Calm Calm - N/A   Clear
6:43 AM 24.8 °F - 21.2 °F 86% 30.22 in 1.8 mi Calm Calm - N/A   Clear
6:51 AM 24.8 °F - 21.2 °F 86% 30.22 in 3.0 mi Calm Calm - N/A   Clear
6:54 AM 25.0 °F - 21.9 °F 88% 30.22 in 5.0 mi Calm Calm - N/A   Clear
7:54 AM 25.0 °F - 23.0 °F 92% 30.24 in 5.0 mi Calm Calm - N/A   Clear
8:54 AM 30.9 °F - 28.9 °F 92% 30.25 in 6.0 mi Calm Calm - N/A   Clear
9:54 AM 37.0 °F - 33.1 °F 86% 30.25 in 10.0 mi Calm Calm - N/A   Clear
10:54 AM 43.0 °F - 34.0 °F 71% 30.25 in 10.0 mi Calm Calm - N/A   Clear
11:54 AM 48.0 °F - 34.0 °F 58% 30.23 in 10.0 mi Calm Calm - N/A   Clear
12:54 PM 52.0 °F - 33.1 °F 49% 30.21 in 10.0 mi Calm Calm - N/A   Clear
1:54 PM 53.1 °F - 30.9 °F 43% 30.19 in 10.0 mi North 6.9 mph - N/A   Clear
2:54 PM 54.0 °F - 30.9 °F 41% 30.18 in 10.0 mi North 5.8 mph - N/A   Clear
3:54 PM 52.0 °F - 33.1 °F 49% 30.17 in 10.0 mi North 3.5 mph - N/A   Clear
4:54 PM 50.0 °F - 34.0 °F 54% 30.16 in 10.0 mi North 3.5 mph - N/A   Clear
5:54 PM 44.1 °F - 35.1 °F 71% 30.16 in 10.0 mi Calm Calm - N/A   Clear
6:54 PM 42.1 °F 39.2 °F 35.1 °F 76% 30.15 in 10.0 mi NNE 4.6 mph - N/A   Clear
7:54 PM 37.9 °F - 33.1 °F 83% 30.15 in 10.0 mi Calm Calm - N/A   Clear
8:54 PM 35.1 °F - 32.0 °F 89% 30.14 in 10.0 mi Calm Calm - N/A   Clear
9:54 PM 34.0 °F - 32.0 °F 92% 30.14 in 9.0 mi Calm Calm - N/A   Clear
10:28 PM 30.2 °F - 30.2 °F 100% 30.13 in 1.5 mi Calm Calm - N/A   Clear
10:31 PM 30.2 °F - 30.2 °F 100% 30.13 in 0.8 mi Calm Calm - N/A   Clear
10:39 PM 32.0 °F - 28.4 °F 87% 30.13 in 1.5 mi Calm Calm - N/A   Clear
10:41 PM 32.0 °F - 28.4 °F 87% 30.13 in 3.0 mi Calm Calm - N/A   Clear
10:50 PM 30.2 °F - 30.2 °F 100% 30.13 in 2.0 mi Calm Calm - N/A   Clear
10:54 PM 32.0 °F - 28.9 °F 88% 30.14 in 4.0 mi Calm Calm - N/A   Clear
11:09 PM 28.4 °F - 28.4 °F 100% 30.13 in 1.8 mi Calm Calm - N/A   Clear
11:14 PM 28.4 °F - 26.6 °F 93% 30.13 in 0.8 mi Calm Calm - N/A   Clear
11:25 PM 30.2 °F - 26.6 °F 86% 30.13 in 1.2 mi Calm Calm - N/A   Clear
11:54 PM 28.0 °F - 28.0 °F 100% 30.13 in 4.0 mi Calm Calm - N/A   Clear